• în România
  • Lista ţărilor
  • Pe 7 zile
  • Temperatura apei
  • Hartă satelitară
  • Meteo pe hartă
  • Widget-uri
  • user-avatar
    Intrare

    Meteo pe oră la Eisenstadt

    Astăzi, 21 Ianuarie, Duminică

    Timp Temperatura Precipitaţii Vânt Presiune Umiditate
    00:00 -3°C° 0 mm 4 m/s 711 mmHg 84%
    01:00 -3°C° 0 mm 4 m/s 711 mmHg 83%
    02:00 -2°C° 0 mm 3 m/s 710 mmHg 84%
    03:00 -2°C° 0 mm 2 m/s 710 mmHg 86%
    04:00 -3°C° 0 mm 2 m/s 709 mmHg 87%
    05:00 -2°C° 0 mm 2 m/s 710 mmHg 86%
    06:00 -2°C° 0 mm 2 m/s 710 mmHg 86%
    07:00 -2°C° 0 mm 2 m/s 710 mmHg 85%
    08:00 -1°C° 0 mm 3 m/s 711 mmHg 82%
    09:00 -1°C° 0 mm 3 m/s 711 mmHg 80%
    10:00 -1°C° 0 mm 4 m/s 712 mmHg 77%
    11:00 -1°C° 0,1 mm 5 m/s 713 mmHg 77%
    12:00 0°C° 0,1 mm 5 m/s 713 mmHg 76%
    13:00 0°C° 0,1 mm 5 m/s 714 mmHg 75%
    14:00 0°C° 0,2 mm 5 m/s 715 mmHg 77%
    15:00 -1°C° 0,2 mm 5 m/s 716 mmHg 78%
    16:00 -1°C° 0,2 mm 5 m/s 716 mmHg 80%
    17:00 -2°C° 0,1 mm 5 m/s 717 mmHg 80%
    18:00 -2°C° 0,1 mm 5 m/s 718 mmHg 81%
    19:00 -3°C° 0,1 mm 6 m/s 719 mmHg 82%
    20:00 -4°C° 0 mm 6 m/s 720 mmHg 81%
    21:00 -4°C° 0 mm 5 m/s 720 mmHg 80%
    22:00 -4°C° 0 mm 5 m/s 721 mmHg 79%
    23:00 -5°C° 0 mm 5 m/s 721 mmHg 80%

    Mâine, 22 Ianuarie, Luni

    Timp Temperatura Precipitaţii Vânt Presiune Umiditate
    00:00 -4°C° 0 mm 4 m/s 722 mmHg 81%
    01:00 -5°C° 0 mm 4 m/s 722 mmHg 82%
    02:00 -5°C° 0 mm 3 m/s 722 mmHg 83%
    03:00 -5°C° 0 mm 3 m/s 722 mmHg 83%
    04:00 -4°C° 0 mm 2 m/s 721 mmHg 83%
    05:00 -4°C° 0 mm 2 m/s 721 mmHg 82%
    06:00 -2°C° 0 mm 1 m/s 721 mmHg 81%
    07:00 -2°C° 0 mm 1 m/s 721 mmHg 80%
    08:00 -1°C° 0 mm 1 m/s 721 mmHg 78%
    09:00 -1°C° 0 mm 1 m/s 721 mmHg 75%
    10:00 0°C° 0 mm 1 m/s 722 mmHg 73%
    11:00 +1°C° 0 mm 1 m/s 721 mmHg 71%
    12:00 +1°C° 0 mm 1 m/s 721 mmHg 68%
    13:00 +2°C° 0 mm 1 m/s 720 mmHg 66%
    14:00 +2°C° 0 mm 1 m/s 720 mmHg 69%
    15:00 +1°C° 0 mm 1 m/s 720 mmHg 71%
    16:00 -1°C° 0 mm 2 m/s 720 mmHg 74%
    17:00 -1°C° 0,1 mm 2 m/s 720 mmHg 76%
    18:00 -2°C° 0,1 mm 2 m/s 721 mmHg 78%
    19:00 -2°C° 0,1 mm 2 m/s 721 mmHg 80%
    20:00 -2°C° 0,1 mm 2 m/s 721 mmHg 80%
    21:00 0°C° 0,1 mm 1 m/s 722 mmHg 81%
    22:00 0°C° 0,1 mm 1 m/s 722 mmHg 82%
    23:00 0°C° 0,2 mm 1 m/s 722 mmHg 84%

    Poimâine, 23 Ianuarie, Marţi

    Timp Temperatura Precipitaţii Vânt Presiune Umiditate
    00:00 0°C° 0,2 mm 1 m/s 723 mmHg 86%
    01:00 0°C° 0,2 mm 1 m/s 723 mmHg 87%
    02:00 +1°C° 0,1 mm 1 m/s 723 mmHg 88%
    03:00 +1°C° 0,1 mm 1 m/s 724 mmHg 89%
    04:00 +1°C° 0,1 mm 1 m/s 724 mmHg 90%
    05:00 +1°C° 0,1 mm 1 m/s 724 mmHg 90%
    06:00 +1°C° 0,1 mm 1 m/s 725 mmHg 90%
    07:00 +1°C° 0,1 mm 1 m/s 726 mmHg 91%
    08:00 +1°C° 0,1 mm 2 m/s 726 mmHg 88%
    09:00 +1°C° 0,1 mm 2 m/s 727 mmHg 86%
    10:00 +2°C° 0,1 mm 2 m/s 728 mmHg 83%
    11:00 +3°C° 0 mm 2 m/s 728 mmHg 81%
    12:00 +3°C° 0 mm 2 m/s 728 mmHg 78%
    13:00 +3°C° 0 mm 3 m/s 729 mmHg 76%
    14:00 +4°C° 0 mm 2 m/s 729 mmHg 79%
    15:00 +3°C° 0 mm 2 m/s 729 mmHg 82%
    16:00 +4°C° 0 mm 1 m/s 729 mmHg 85%
    17:00 +3°C° 0 mm 1 m/s 730 mmHg 88%
    18:00 +2°C° 0 mm 1 m/s 730 mmHg 90%
    19:00 +1°C° 0 mm 1 m/s 730 mmHg 92%
    20:00 +1°C° 0 mm 1 m/s 731 mmHg 92%
    21:00 +1°C° 0 mm 1 m/s 731 mmHg 92%
    22:00 0°C° 0 mm 1 m/s 731 mmHg 93%
    23:00 0°C° 0 mm 1 m/s 731 mmHg 93%

    24 Ianuarie, Miercuri

    Timp Temperatura Precipitaţii Vânt Presiune Umiditate
    00:00 0°C° 0 mm 1 m/s 731 mmHg 93%
    01:00 0°C° 0 mm 1 m/s 731 mmHg 93%
    02:00 -2°C° 0 mm 2 m/s 731 mmHg 93%
    03:00 -2°C° 0 mm 2 m/s 731 mmHg 93%
    04:00 -2°C° 0 mm 2 m/s 731 mmHg 93%
    05:00 -2°C° 0 mm 2 m/s 731 mmHg 93%
    06:00 -2°C° 0 mm 2 m/s 731 mmHg 92%
    07:00 -2°C° 0 mm 2 m/s 731 mmHg 92%
    08:00 -1°C° 0 mm 2 m/s 731 mmHg 89%
    09:00 +1°C° 0 mm 2 m/s 731 mmHg 85%
    10:00 +2°C° 0 mm 2 m/s 732 mmHg 82%
    11:00 +2°C° 0 mm 3 m/s 731 mmHg 80%
    12:00 +3°C° 0 mm 3 m/s 731 mmHg 78%
    13:00 +4°C° 0 mm 3 m/s 731 mmHg 76%
    14:00 +3°C° 0 mm 3 m/s 731 mmHg 80%
    15:00 +2°C° 0 mm 3 m/s 731 mmHg 83%
    16:00 +2°C° 0 mm 3 m/s 730 mmHg 86%
    17:00 +1°C° 0 mm 3 m/s 730 mmHg 87%
    18:00 0°C° 0 mm 3 m/s 730 mmHg 89%
    19:00 -1°C° 0 mm 3 m/s 730 mmHg 90%
    20:00 -1°C° 0 mm 3 m/s 730 mmHg 90%
    21:00 -1°C° 0 mm 3 m/s 730 mmHg 90%
    22:00 -1°C° 0 mm 3 m/s 730 mmHg 90%
    23:00 -1°C° 0 mm 3 m/s 730 mmHg 90%

    25 Ianuarie, Joi

    Timp Temperatura Precipitaţii Vânt Presiune Umiditate
    00:00 -2°C° 0 mm 3 m/s 729 mmHg 90%
    01:00 -2°C° 0 mm 3 m/s 729 mmHg 90%
    02:00 -2°C° 0 mm 3 m/s 729 mmHg 89%
    03:00 -2°C° 0 mm 3 m/s 728 mmHg 89%
    04:00 -2°C° 0 mm 3 m/s 728 mmHg 89%
    05:00 -2°C° 0 mm 3 m/s 727 mmHg 88%
    06:00 -2°C° 0 mm 3 m/s 727 mmHg 88%
    07:00 -4°C° 0 mm 3 m/s 727 mmHg 88%
    08:00 -2°C° 0 mm 3 m/s 727 mmHg 85%
    09:00 -1°C° 0 mm 3 m/s 727 mmHg 82%
    10:00 0°C° 0 mm 3 m/s 727 mmHg 79%
    11:00 +1°C° 0 mm 3 m/s 727 mmHg 77%
    12:00 +2°C° 0 mm 3 m/s 726 mmHg 76%
    13:00 +3°C° 0 mm 3 m/s 726 mmHg 74%
    14:00 +3°C° 0 mm 2 m/s 726 mmHg 77%
    15:00 +3°C° 0 mm 2 m/s 725 mmHg 80%
    16:00 +2°C° 0 mm 2 m/s 725 mmHg 83%
    17:00 +1°C° 0 mm 2 m/s 725 mmHg 85%
    18:00 -1°C° 0 mm 2 m/s 725 mmHg 87%
    19:00 -2°C° 0 mm 2 m/s 725 mmHg 88%
    20:00 -2°C° 0 mm 2 m/s 724 mmHg 88%
    21:00 -2°C° 0 mm 2 m/s 724 mmHg 88%
    22:00 -2°C° 0 mm 2 m/s 724 mmHg 88%
    23:00 -2°C° 0 mm 2 m/s 724 mmHg 88%

    26 Ianuarie, Vineri

    Timp Temperatura Precipitaţii Vânt Presiune Umiditate
    00:00 -2°C° 0 mm 2 m/s 724 mmHg 87%
    01:00 -2°C° 0 mm 2 m/s 724 mmHg 87%
    02:00 -2°C° 0 mm 2 m/s 724 mmHg 87%
    03:00 -2°C° 0 mm 2 m/s 723 mmHg 86%
    04:00 -2°C° 0 mm 2 m/s 723 mmHg 86%
    05:00 -2°C° 0 mm 2 m/s 723 mmHg 86%
    06:00 -2°C° 0 mm 2 m/s 723 mmHg 85%
    07:00 -1°C° 0 mm 2 m/s 723 mmHg 85%
    08:00 -1°C° 0 mm 3 m/s 723 mmHg 84%
    09:00 -1°C° 0 mm 3 m/s 724 mmHg 83%
    10:00 0°C° 0 mm 3 m/s 724 mmHg 82%
    11:00 0°C° 0 mm 3 m/s 724 mmHg 81%
    12:00 +1°C° 0 mm 3 m/s 723 mmHg 80%
    13:00 +2°C° 0 mm 3 m/s 723 mmHg 79%
    14:00 +2°C° 0 mm 2 m/s 724 mmHg 80%
    15:00 +2°C° 0 mm 2 m/s 724 mmHg 82%
    16:00 +2°C° 0 mm 2 m/s 724 mmHg 83%
    17:00 +2°C° 0 mm 2 m/s 724 mmHg 83%
    18:00 +1°C° 0 mm 2 m/s 724 mmHg 84%
    19:00 +1°C° 0 mm 2 m/s 725 mmHg 85%
    20:00 +1°C° 0 mm 1 m/s 725 mmHg 85%
    21:00 +1°C° 0 mm 1 m/s 725 mmHg 85%
    22:00 +1°C° 0 mm 1 m/s 726 mmHg 85%
    23:00 +1°C° 0 mm 1 m/s 726 mmHg 86%
    Arată mai mult